This is the latest recevied weather packets stored in our database for station/object SP1BMW-13. If no packets are shown the sender has not sent any weather packets the latest 10 day(s).
| Time | Temp. | Humidity | Pressure | Rain* | Wind** | Luminosity | Snow |
|---|---|---|---|---|---|---|---|
| 1787743093 | 23.33° C | 48% | 1021.4 hPa | 0 mm | 0.45 m/s, 82° | 719 W/m² | - |
| 1787743033 | 23.33° C | 49% | 1021.6 hPa | 0 mm | 0.45 m/s, 0° | 728 W/m² | - |
| 1787742974 | 23.33° C | 50% | 1021.6 hPa | 0 mm | 0.89 m/s, 68° | 694 W/m² | - |
| 1787742914 | 22.78° C | 48% | 1021.4 hPa | 0 mm | 1.79 m/s, 36° | 708 W/m² | - |
| 1787742853 | 22.78° C | 49% | 1021.5 hPa | 0 mm | 1.34 m/s, 31° | 691 W/m² | - |
| 1787742794 | 22.78° C | 51% | 1021.5 hPa | 0 mm | 0.45 m/s, 161° | 644 W/m² | - |
| 1787742733 | 22.78° C | 49% | 1021.8 hPa | 0 mm | 0.89 m/s, 55° | 658 W/m² | - |
| 1787742673 | 22.78° C | 50% | 1021.5 hPa | 0 mm | 0.89 m/s, 37° | 558 W/m² | - |
| 1787742614 | 22.78° C | 48% | 1021.5 hPa | 0 mm | 2.68 m/s, 49° | 528 W/m² | - |
| 1787742553 | 22.78° C | 50% | 1021.7 hPa | 0 mm | 0.89 m/s, 125° | 263 W/m² | - |
| 1787742494 | 22.78° C | 50% | 1021.5 hPa | 0 mm | 1.79 m/s, 358° | 614 W/m² | - |
| 1787742434 | 23.33° C | 51% | 1021.8 hPa | 0 mm | 0.89 m/s, 26° | 621 W/m² | - |
| 1787742373 | 23.33° C | 50% | 1021.5 hPa | 0 mm | 0.89 m/s, 37° | 369 W/m² | - |
| 1787742314 | 23.33° C | 51% | 1021.6 hPa | 0 mm | 0.45 m/s, 21° | 382 W/m² | - |
| 1787742253 | 23.33° C | 49% | 1021.5 hPa | 0 mm | 2.24 m/s, 21° | 476 W/m² | - |
| 1787742193 | 23.89° C | 48% | 1021.4 hPa | 0 mm | 1.34 m/s, 65° | 760 W/m² | - |
| 1787742133 | 23.89° C | 48% | 1021.5 hPa | 0 mm | 2.24 m/s, 51° | 209 W/m² | - |
| 1787742073 | 23.89° C | 49% | 1021.5 hPa | 0 mm | 2.24 m/s, 35° | 203 W/m² | - |
| 1787742013 | 23.89° C | 49% | 1021.5 hPa | 0 mm | 1.34 m/s, 51° | 688 W/m² | - |
| 1787741953 | 23.33° C | 49% | 1021.5 hPa | 0 mm | 1.79 m/s, 41° | 702 W/m² | - |
| 1787741893 | 23.33° C | 49% | 1021.6 hPa | 0 mm | 1.79 m/s, 50° | 699 W/m² | - |
| 1787741833 | 23.33° C | 50% | 1021.7 hPa | 0 mm | 1.34 m/s, 59° | 704 W/m² | - |
| 1787741773 | 23.33° C | 50% | 1021.6 hPa | 0 mm | 0.89 m/s, 68° | 645 W/m² | - |
| 1787741713 | 23.33° C | 52% | 1021.6 hPa | 0 mm | 0.45 m/s, 54° | 727 W/m² | - |
| 1787741653 | 23.33° C | 51% | 1021.6 hPa | 0 mm | 0.45 m/s, 78° | 739 W/m² | - |
* Rain latest hour (hover to see other rain measurements)
** Current wind speed in m/s (hover to see current wind gust speed)